Date String (YYYY-MM-DD hh:mm:ss) UTC,Instrument flags,Ambient pressure (hPa),Sample flow (lpm),Bypass flow (lpm),Sample temperature (°C),Ambient temperature (°C),ASC tube jacket temperature (°C),LED temperature (°C),Box temperature (°C),Sample RH (%),Span deviation,Mass concentration (μg/m³),Mass concentration (μg/m³),Mass concentration (μg/m³)
DateTimeUTC,F1_M11,P_M11,Q1_M11,Q2_M11,T1_M11,T2_M11,T3_M11,T4_M11,T5_M11,U1_M11,ZSPAN_M11,X0_M11,X2_M11,X1_M11
2022-02-25 12:00:00,,0828.4,4.99,0.00,22.2,21.6,00.0,31.3,23.8,05.9,-000.3,0014.36,0009.43,0008.96
2022-02-25 12:01:00,,0828.5,5.00,0.00,22.2,21.4,00.0,31.3,23.7,05.9,-000.4,0014.52,0009.40,0008.92
2022-02-25 12:02:00,,0828.4,5.00,0.00,22.1,21.5,00.0,31.3,23.6,05.9,-000.5,0014.77,0009.38,0008.84
2022-02-25 12:03:00,,0828.4,5.01,0.00,22.2,22.1,00.0,31.3,23.9,05.9,-000.4,0014.79,0009.32,0008.77
2022-02-25 12:04:00,,0828.5,5.00,0.00,22.3,22.7,00.0,31.3,24.1,05.9,-000.2,0014.70,0009.26,0008.71
2022-02-25 12:05:00,,0828.7,5.00,0.00,22.5,23.1,00.0,31.4,24.3,05.8,-000.1,0014.53,0009.19,0008.66
2022-02-25 12:06:00,,0828.8,4.99,0.00,22.5,22.9,00.0,31.4,24.4,05.8,0000.1,0014.15,0009.11,0008.59
2022-02-25 12:07:00,,0828.5,4.99,0.00,22.5,22.6,00.0,31.4,24.3,05.8,0000.1,0013.77,0009.06,0008.53
2022-02-25 12:08:00,,0828.5,5.00,0.00,22.4,22.3,00.0,31.4,24.1,05.8,-000.1,0013.35,0009.05,0008.48
2022-02-25 12:09:00,,0828.5,5.00,0.00,22.4,22.0,00.0,31.4,24.0,05.8,-000.0,0013.19,0009.02,0008.42
2022-02-25 12:10:00,,0828.9,5.01,0.00,22.3,21.8,00.0,31.3,23.9,05.9,0000.1,0013.16,0008.96,0008.34
2022-02-25 12:11:00,,0829.0,5.00,0.00,22.2,21.6,00.0,31.3,23.9,05.9,0000.2,0013.24,0008.93,0008.28
2022-02-25 12:12:00,,0829.0,5.00,0.00,22.2,21.4,00.0,31.3,23.8,05.9,0000.0,0013.00,0008.91,0008.26
2022-02-25 12:13:00,,0829.0,5.00,0.00,22.1,21.4,00.0,31.3,23.7,05.9,-000.1,0012.74,0008.87,0008.26
2022-02-25 12:14:00,,0829.0,5.01,0.00,22.2,22.0,00.0,31.3,23.9,05.9,-000.1,0012.74,0008.86,0008.26
2022-02-25 12:15:00,,0828.9,5.00,0.00,22.3,22.7,00.0,31.3,24.1,05.9,-000.0,0012.79,0008.86,0008.25
2022-02-25 12:16:00,,0828.8,5.01,0.00,22.5,23.2,00.0,31.4,24.4,05.8,-000.0,0012.79,0008.83,0008.22
2022-02-25 12:17:00,,0828.9,4.99,0.00,22.5,23.1,00.0,31.4,24.4,05.8,-000.0,0012.74,0008.80,0008.22
2022-02-25 12:18:00,,0828.9,4.99,0.00,22.5,22.8,00.0,31.4,24.3,05.8,0000.0,0012.75,0008.77,0008.19
2022-02-25 12:19:00,,0829.1,5.00,0.00,22.5,22.5,00.0,31.4,24.2,05.8,0000.1,0012.69,0008.75,0008.19
2022-02-25 12:20:00,,0829.0,5.00,0.00,22.4,22.2,00.0,31.4,24.1,05.8,-000.1,0012.53,0008.69,0008.18
2022-02-25 12:21:00,,0828.6,5.00,0.00,22.4,22.0,00.0,31.4,24.1,05.8,-000.1,0012.54,0008.70,0008.19
2022-02-25 12:22:00,,0828.4,5.00,0.00,22.3,21.8,00.0,31.3,24.0,05.8,-000.1,0012.46,0008.68,0008.19
2022-02-25 12:23:00,,0828.5,4.99,0.00,22.3,21.6,00.0,31.3,23.9,05.8,0000.3,0012.38,0008.65,0008.17
2022-02-25 12:24:00,,0828.5,5.01,0.00,22.2,21.5,00.0,31.3,23.9,05.8,0000.6,0012.41,0008.66,0008.15
2022-02-25 12:25:00,,0828.6,4.99,0.00,22.2,21.7,00.0,31.3,23.9,05.8,0000.7,0012.35,0008.65,0008.14
2022-02-25 12:26:00,,0829.0,5.00,0.00,22.3,22.4,00.0,31.3,24.1,05.8,0000.3,0012.21,0008.61,0008.12
2022-02-25 12:27:00,,0829.1,5.00,0.00,22.4,23.0,00.0,31.4,24.3,05.7,0000.1,0012.30,0008.67,0008.16
2022-02-25 12:28:00,,0828.7,5.01,0.00,22.6,23.3,00.0,31.4,24.5,05.6,-000.1,0012.32,0008.68,0008.16
2022-02-25 12:29:00,,0828.7,5.00,0.00,22.6,23.0,00.0,31.4,24.4,05.6,-000.3,0012.51,0008.77,0008.20
2022-02-25 12:30:00,,0828.6,5.03,0.00,22.5,22.6,00.0,31.4,24.3,05.6,-000.4,0013.02,0008.85,0008.24
2022-02-25 12:31:00,,0828.6,5.00,0.00,22.4,22.2,00.0,31.4,24.1,05.6,0000.1,0013.27,0008.93,0008.29
2022-02-25 12:32:00,,0828.6,5.01,0.00,22.3,21.8,00.0,31.4,23.9,05.6,0000.3,0013.31,0008.97,0008.34
2022-02-25 12:33:00,,0828.6,5.00,0.00,22.2,21.5,00.0,31.3,23.8,05.6,-000.1,0013.55,0009.05,0008.43
2022-02-25 12:34:00,,0828.9,4.99,0.00,22.1,21.3,00.0,31.3,23.6,05.7,-000.1,0013.89,0009.12,0008.53
2022-02-25 12:35:00,,0828.7,5.00,0.00,22.1,21.3,00.0,31.3,23.6,05.7,-000.3,0014.31,0009.22,0008.62
2022-02-25 12:36:00,,0828.7,5.01,0.00,22.2,22.0,00.0,31.3,23.8,05.7,-000.7,0014.50,0009.34,0008.73
2022-02-25 12:37:00,,0828.7,5.00,0.00,22.3,22.7,00.0,31.3,24.1,05.7,-000.4,0014.79,0009.50,0008.86
2022-02-25 12:38:00,,0828.7,5.00,0.00,22.4,23.1,00.0,31.4,24.3,05.6,-000.0,0015.00,0009.61,0008.93
2022-02-25 12:39:00,,0828.7,5.00,0.00,22.4,22.8,00.0,31.4,24.2,05.7,0000.5,0015.05,0009.67,0008.99
2022-02-25 12:40:00,,0828.6,5.01,0.00,22.3,22.3,00.0,31.3,24.0,05.7,0000.7,0015.04,0009.69,0009.04
2022-02-25 12:41:00,,0828.7,5.00,0.00,22.2,21.9,00.0,31.3,23.8,05.7,0000.6,0014.73,0009.72,0009.08
2022-02-25 12:42:00,,0828.6,5.00,0.00,22.1,21.5,00.0,31.3,23.6,05.8,0000.4,0014.72,0009.76,0009.11
2022-02-25 12:43:00,,0828.7,5.00,0.00,22.0,21.2,00.0,31.2,23.4,05.8,0000.4,0014.69,0009.78,0009.15
2022-02-25 12:44:00,,0828.7,5.01,0.00,21.9,20.9,00.0,31.2,23.2,05.9,0000.9,0014.46,0009.79,0009.16
2022-02-25 12:45:00,,0828.7,5.00,0.00,21.8,21.2,00.0,31.2,23.3,05.9,0000.8,0014.27,0009.81,0009.16
2022-02-25 12:46:00,,0828.7,4.99,0.00,22.0,22.1,00.0,31.2,23.6,05.9,0000.7,0014.03,0009.84,0009.18
2022-02-25 12:47:00,,0829.0,5.00,0.00,22.1,22.8,00.0,31.2,23.9,05.8,0001.0,0014.03,0009.82,0009.17
2022-02-25 12:48:00,,0828.9,5.00,0.00,22.2,23.0,00.0,31.2,24.1,05.8,0000.9,0014.16,0009.75,0009.12
2022-02-25 12:49:00,,0828.8,5.00,0.00,22.2,22.7,00.0,31.2,24.0,05.8,0000.6,0014.13,0009.73,0009.12
2022-02-25 12:50:00,,0828.9,5.01,0.00,22.2,22.3,00.0,31.2,23.8,05.8,0000.3,0014.25,0009.78,0009.14
2022-02-25 12:51:00,,0829.3,4.99,0.00,22.1,21.8,00.0,31.2,23.6,05.8,0000.2,0014.20,0009.80,0009.16
2022-02-25 12:52:00,,0829.3,5.00,0.00,22.0,21.5,00.0,31.1,23.5,05.8,0000.1,0014.09,0009.79,0009.18
2022-02-25 12:53:00,,0829.2,5.00,0.00,21.9,21.2,00.0,31.1,23.4,05.8,-000.0,0014.06,0009.79,0009.21
2022-02-25 12:54:00,,0829.2,4.99,0.00,21.8,21.1,00.0,31.1,23.3,05.9,-000.0,0014.14,0009.81,0009.22
2022-02-25 12:55:00,,0829.2,5.00,0.00,21.8,21.4,00.0,31.1,23.4,05.9,-000.2,0014.20,0009.82,0009.22
2022-02-25 12:56:00,,0829.3,5.01,0.00,22.0,22.2,00.0,31.1,23.7,05.8,0000.0,0014.21,0009.82,0009.23
2022-02-25 12:57:00,,0829.2,5.01,0.00,22.1,22.9,00.0,31.1,24.0,05.8,0000.2,0014.19,0009.81,0009.21
2022-02-25 12:58:00,,0829.3,4.98,0.00,22.2,23.1,00.0,31.1,24.1,05.7,0000.2,0014.16,0009.81,0009.21
2022-02-25 12:59:00,,0829.2,4.99,0.00,22.2,22.7,00.0,31.1,24.1,05.7,0000.4,0013.91,0009.83,0009.23
